{"data":{"norad_id":21639,"intl_designator":"1991-054B","name":"TDRS 5","alt_names":[],"object_type":"PAYLOAD","status":"ACTIVE","operator":null,"country":"US","launch_date":"1991-08-02","launch_site_code":"AFETR","launch_vehicle":null,"mission":null,"orbit_class":"UNKNOWN","rcs_meters":20.8608,"size_class":null,"mass_kg":null,"dimensions":null,"purposes":["comms"],"wikipedia_slug":null,"has_3d_model":false,"image_url":null,"decayed_at":null,"tle_current":{"epoch":"2026-09-16T09:11:36.306240Z","epoch_age_seconds":366963,"freshness":"STALE","line1":"1 21639U 91054B   26259.38305910  .00000084  00000+0  00000+0 0  9993","line2":"2 21639  14.0607 353.0930 0009292 251.3156  81.4722  1.00281594128622","mean_motion":1.00281594,"eccentricity":0.0009292,"inclination_deg":14.0607,"raan_deg":353.093,"arg_perigee_deg":251.3156,"mean_anomaly_deg":81.4722,"bstar":0,"rev_number":12862,"period_min":1435.9564328425,"perigee_km":35744.668452545,"apogee_km":35823.022280575,"semimajor_km":42161.98236656,"source":"CELESTRAK","updated_at":"2026-09-20T09:00:35.114767Z"}}}